Simultaneous Nadir Overpasses (SNOs) Predictions

Prediction of SNOs between AQUA and METOP-A Satellite Orbit:

Table of predicted SNOs for the next 14.0 days since TLE Epoch: 1/3/2014
Index Date (AQUA) Time (AQUA) Lat,Lon (AQUA) SZA (AQUA ) Date (METOP-A) Time (METOP-A) Lat,Lon (METOP-A) SZA (METOP-A ) Distance(km) Time Diff (sec)
1 01/04/2014 16:51:45 73.86, -78.77 96.55 01/04/2014 16:51:18 73.86, -78.83 96.56 1.99 27
2 01/04/2014 17:41:12 -73.94, 88.69 83.37 01/04/2014 17:41:58 -73.93, 88.66 83.38 1.58 46
3 01/07/2014 11:36:18 -73.32,-178.80 84.34 01/07/2014 11:35:10 -73.27, 178.90 84.29 73.78 68
4 01/07/2014 12:25:56 73.87, -12.33 96.24 01/07/2014 12:25:38 73.88, -12.38 96.26 1.90 18
5 01/07/2014 13:15:23 -73.94, 155.14 83.69 01/07/2014 13:16:18 -73.95, 155.12 83.69 0.57 55
6 01/10/2014 07:10:36 -73.69,-113.13 84.33 01/10/2014 07:09:24 -73.64,-113.87 84.34 24.10 72
7 01/10/2014 08:00:07 73.88, 54.10 95.87 01/10/2014 07:59:59 73.89, 54.06 95.89 1.71 8
8 01/10/2014 08:49:34 -73.95,-138.43 84.06 01/10/2014 08:50:39 -73.96,-138.44 84.06 0.85 65
9 01/13/2014 02:44:49 -73.86, -47.03 84.59 01/13/2014 02:43:41 -73.84, -46.98 84.60 2.79 68
10 01/13/2014 03:34:17 73.90, 120.53 95.45 01/13/2014 03:34:20 73.89, 120.47 95.45 1.73 3
11 01/13/2014 04:23:46 -74.07, -72.23 84.37 01/13/2014 04:24:58 -74.06, -71.78 84.40 13.63 72
12 01/15/2014 22:18:56 -73.82, 19.52 85.12 01/15/2014 22:18:01 -73.84, 19.42 85.09 3.36 55
13 01/15/2014 23:08:25 73.92,-173.05 94.98 01/15/2014 23:08:39 73.94,-173.01 95.00 2.46 14




NCC Satellite Simultaneous Nadir Overpasses (SNOs) Prediction Service
